Hourly Data Report for May 21, 2020

STE-ANNE-DE-BELLEVUE 1
QUEBEC
Current Station Operator: ECCC - MSC

45°25'38.000" N
73°55'45.000" W
39.00 m
702FHL8
71377
WVQ

Download Data

Hourly Data (May 2020)
Hourly Data Report for May 21, 2020
TIME
LST
Temp Definition
°C
Dew Point Definition
°C
Rel Hum Definition
%
Precip. Amount Definition
mm

Wind Dir Definition
10's deg

Wind Spd Definition
km/h
Visibility Definition
km
Stn Press Definition
kPa
Hmdx Definition


Wind Chill Definition


Weather Definition


00:00 10.9 4.2 63 0.0   0   102.09     LegendNANA
01:00 10.2 3.7 64 0.0   0   102.09     LegendNANA
02:00 12.9 4.7 58 0.0 24 9   102.12     LegendNANA
03:00 12.4 4.0 56 0.0 25 10   102.12     LegendNANA
04:00 12.8 4.8 58 0.0 24 13   102.14     LegendNANA
05:00 12.4 4.9 60 0.0 25 13   102.19     LegendNANA
06:00 13.9 5.0 55 0.0 25 16   102.24     LegendNANA
07:00 15.8 3.7 45 0.0 24 20   102.24     LegendNANA
08:00 17.5 3.6 39 0.0 24 20   102.22     LegendNANA
09:00 19.7 1.9 31 0.0 25 23   102.18     LegendNANA
10:00 20.9 1.1 27 0.0 25 20   102.13     LegendNANA
11:00 22.5 2.2 26 0.0 25 17   102.06     LegendNANA
12:00 23.0 2.2 25 0.0 25 17   101.95     LegendNANA
13:00 24.2 1.6 23 0.0 23 16   101.87     LegendNANA
14:00 24.9 0.3 20 0.0 23 17   101.77     LegendNANA
15:00 25.7 2.1 22 0.0 24 18   101.68     LegendNANA
16:00 25.5 -1.1 17 0.0 24 19   101.58     LegendNANA
17:00 25.1 -3.3 15 0.0 24 18   101.53     LegendNANA
18:00 24.1 -3.8 15 0.0 26 15   101.47     LegendNANA
19:00 22.4 -4.6 16 0.0 26 15   101.45     LegendNANA
20:00 19.6 -5.1 18 0.0 27 10   101.43     LegendNANA
21:00 18.6 -4.6 20 0.0 26 11   101.46     LegendNANA
22:00 15.4 -2.4 29 0.0 25 6   101.44     LegendNANA
23:00 15.1 0.3 36 0.0 24 11   101.46     LegendNANA

Notes on Data Quality.

Legend

  • E = Estimated
  • M = Missing
  • NA = Not Available*
  • [empty] = Indicates an unobserved value
Date modified: